Location: Bern�tre
(50.1974°N, 2.0915°E)
Time: 06:22:42
(UTC+00:00)

NOSS 2-2 (D) - Pass Details

Date: 18 September 2020
Orbit: 462 x 1746 km, 63.3° (Epoch: 14 October)

Event Time Altitude Azimuth Distance (km) Brightness Sun altitude
Rises 19:20:18 0° 209° (SSW) 2,482 6.8 -13.7°
Reaches altitude 10° 19:22:21 10° 204° (SSW) 1,611 5.8 -14.1°
Maximum altitude 19:25:43 53° 127° (SE) 608 3.1 -14.6°
Drops below altitude 10° 19:29:33 10° 50° (NE) 1,830 5.7 -15.1°
Sets 19:32:01 0° 46° (NE) 2,869 6.7 -15.5°
Enters shadow 19:32:06 - 46° (NE) 2,902 6.8 -15.5°
